Torna al catalogo

THOR ABLESTAR DEB

AttivoLEO
NORAD 147·DEBRIS·🇺🇸 United States

Lanciato Jun 29, 1961 da Cape Canaveral Space Force Station

Loading…

Prossimi Passaggi (prossime 24 ore)

TLE

AggiornatoSource: Space-Track

Epoca: Sep 7, 2026, 04:39 UTC

1 00147U 61015AH  26250.19424148  .00000466  00000-0  23491-3 0  9991
2 00147  66.6167 147.4074 0048370  12.4490 347.7787 14.24380996346142

Traccia THOR ABLESTAR DEB in tempo reale con AllMySat

Download on the App Store